Regional Weather Roundup
Issued by NWS Charleston, SC

Current Version | Previous Version | Text Only | Print | Product List | Glossary Off
Versions: 1 2 3 4 5 6 7 8 9 10 11 12 13 14 15 16 17 18 19 20 21 22 23 24 25 26 27 28 29 30 31 32 33 34 35 36 37 38 39 40 41 42 43 44 45 46 47 48 49 50

283
ASUS42 KCHS 201512
RWRCHS

REGIONAL WEATHER ROUNDUP
NATIONAL WEATHER SERVICE CHARLESTON SC
1000 AM EST FRI JAN 20 2017

NOTE: "FAIR" INDICATES FEW OR NO CLOUDS BELOW 12,000 FEET WITH NO
SIGNIFICANT WEATHER AND/OR OBSTRUCTIONS TO VISIBILITY.

NOT ALL STATIONS ARE QUALITY CONTROLLED. USE DATA WITH CAUTION...
ESPECIALLY DEWPOINT OBSERVATIONS.

SCZ027-030-031-034>040-042>050-201600-
...SOUTHEAST SOUTH CAROLINA...

CITY           SKY/WX    TMP DP  RH WIND       PRES   REMARKS
N CHARLESTON   MOSUNNY   69  61  75 SW9       29.92R
WATERFRONT PRK   N/A     63  60  90 VRB3      29.91R
MOUNT PLEASANT FAIR      68  63  83 S10       29.92S
JOHNS ISLAND     N/A     68  64  88 SW12      29.92S
PINOPOLIS        N/A    N/A N/A N/A VRB3      29.81S
MONCKS CORNER  CLOUDY    66  59  77 S8        29.91S
SUMMERVILLE    FAIR      68  63  83 SW6       29.92R
BEAUFORT MCAS  MOSUNNY   71  62  73 S10       29.92R
BEAUFORT ARPT  FAIR      68  61  77 S7        29.92R
HILTON HEAD IS SUNNY     72  64  78 S13       29.94R
WALTERBORO     SUNNY     68  59  73 SW9       29.93R
ALLENDALE      CLOUDY    64  61  88 VRB5      29.91R

...SOUTHERN MIDLANDS AND PEE DEE...

CITY           SKY/WX    TMP DP  RH WIND       PRES   REMARKS
GEORGETOWN     CLOUDY    63  61  94 S5        29.93R
KINGSTREE      FAIR      64  55  72 SE5       29.91R
ORANGEBURG     PTSUNNY   65  58  78 SW8       29.90S
BARNWELL       FAIR      68  63  83 SW8       29.91R
AIKEN          CLOUDY    61  59  94 SW7       29.93R
MANNING        FAIR      63  50  63 S6        29.91R
COLUMBIA       PTSUNNY   63  57  81 VRB5      29.89R
SUMTER         MOSUNNY   63  57  82 S7        29.88R
FLORENCE       CLOUDY    62  56  80 S3        29.91R
MYRTLE BEACH   CLOUDY    63  55  77 E6        29.94
N MYRTLE BEACH CLOUDY    62  55  77 E5        29.92R

$$

GAZ063-065-086>088-099>101-113>116-118-119-134>141-150-201600-
...SOUTHEAST GEORGIA...

CITY           SKY/WX    TMP DP  RH WIND       PRES   REMARKS
SAVANNAH ARPT  CLOUDY    68  61  78 W13       29.93R
HUNTER AAF     MOSUNNY   70  67  90 VRB7      29.90R
FORT STEWART   CLOUDY    66  62  87 SW8       29.91S
STATESBORO     CLOUDY    65  32  29 SW5       29.92R
SYLVANIA       CLOUDY   N/A N/A N/A W3        29.92S
CLAXTON        CLOUDY   N/A N/A N/A S3        29.91F

...CSRA...CENTRAL AND FAR SOUTHEAST GEORGIA...

CITY           SKY/WX    TMP DP  RH WIND       PRES   REMARKS
THOMSON        CLOUDY    65  65 100 CALM      29.94R
AUGUSTA-BUSH   CLOUDY    67  60  78 SW6       29.89R
AUGUSTA-DANIEL CLOUDY    65  58  78 SW7       29.90R
SWAINSBORO     CLOUDY    64  63  94 SW3       29.92R
VIDALIA        CLOUDY    66  66 100 SW7       29.92R
EASTMAN        CLOUDY    67  66  95 W3        29.94R
HAZLEHURST     CLOUDY    70  67  92 SW13G21   29.91R
ALMA           PTSUNNY   70  64  81 SW9G21    29.92R
WAYCROSS       CLOUDY    69  69 100 SW8       29.93R
JESUP          CLOUDY    68  63  83 SW7       29.94R
BAXLEY         FAIR      72  68  88 SW8       29.91S
BRUNSWICK      MOSUNNY   72  68  88 SW8       29.94R
SAINT SIMONS   SUNNY     70  64  81 SW9       29.93R

$$

SCZ027-028-034-036>038-045-046-048>050-GAZ119-141-201600-
...LAKE AND SUPPLEMENTAL COASTAL OBSERVATIONS...

STATION/POSITION TIME  TEMP    WIND        PRES    WAVE   SWELL
                       AIR SEA DIR/SP/G            HT/PER HT/PER/DIR
                 (UTC) (F)     (DEG/KT/KT) (MB)    (FT/S) (FT/S/D)
WINYAH BAY       NOT AVBL
LAKE MURRAY      1420   59     170/  4/  5 1011.5R
ACE BASIN NERRS  1345   60        CALM     1013.0
FORT PULASKI     1442   66 58  220/  7/ 10 1013.5R
SAPELO ISLAND    1400   65     190/  6     1013.0

$$

ANZ835-935-AMZ111-154-330-350-352-354-370-450-454-472-201600-
...C-MAN AND BUOY OBSERVATIONS...

STATION/POSITION TIME  TEMP    WIND        PRES    WAVE   SWELL
                       AIR SEA DIR/SP/G            HT/PER HT/PER/DIR
                 (UTC) (F)     (DEG/KT/KT) (MB)    (FT/S) (FT/S/D)
BUOY 41004       1350   71 71  220/  8/  8 1012.8    2/ 9   2/120/ 9
BUOY 41008       1350   62 59  170/  8/  8 1012.6    2/ 9   2/ 60/ 9
FOLLY BEACH CMAN 1400   59     180/  4/  4 1013.4R
CAPERS NEARSHORE 1408   58 55  150/  4/  6 1012.9R
FRIPP NEARSHORE  1408   61 58  210/  4/  6 1012.9R


STATION/POSITION TIME  TEMP    WIND        PRES    WAVE   SWELL
                       AIR SEA DIR/SP/G            HT/PER HT/PER/DIR
                 (UTC) (F)     (DEG/KT/KT) (MB)    (FT/S) (FT/S/D)
5E ST. MARYS GA  1430      63                N/A     2/ 9
FRYING PAN BUOY  1450   71 71  230/ 10/ 14 1013.3R   3/10   2/ 80/10
BUOY 41025       1450   65 76  150/  4/  8 1015.5R   5/12   5/ 80/12
CAPE LOOKOUT NC  1400   64      90/  7/  8 1014.2R
BUOY 41002       1450   69 71  140/ 10/ 12 1015.9R   5/11   5/ 10/11
BUOY 41010       NOT AVBL
ST AUGUSTINE FL  1500   69 63  220/  7/  9 1015.4R


$$




USA.gov is the U.S. government's official web portal to all federal, state and local government web resources and services.